This is the latest recevied weather packets stored in our database for station/object W7TJC. If no packets are shown the sender has not sent any weather packets the latest 10 day(s).
| Time | Temp. | Humidity | Pressure | Rain* | Wind** | Luminosity | Snow |
|---|---|---|---|---|---|---|---|
| 1777937360 | 24.44° C | 53% | 1011.1 hPa | 0 mm | - | 28 W/m² | - |
| 1777937057 | 23.89° C | 56% | 1011 hPa | 0 mm | - | 22 W/m² | - |
| 1777936754 | 23.89° C | 53% | 1010.9 hPa | 0 mm | - | 43 W/m² | - |
| 1777936450 | 24.44° C | 53% | 1010.8 hPa | 0 mm | - | 22 W/m² | - |
| 1777936147 | 24.44° C | 54% | 1011 hPa | 0 mm | - | 19 W/m² | - |
| 1777935844 | 24.44° C | 53% | 1011.2 hPa | 0 mm | - | 19 W/m² | - |
| 1777935543 | 23.89° C | 52% | 1011.1 hPa | 0 mm | - | 21 W/m² | - |
| 1777935238 | 23.89° C | 53% | 1011.3 hPa | 0 mm | - | 21 W/m² | - |
| 1777934936 | 23.89° C | 52% | 1011.4 hPa | 0 mm | - | 21 W/m² | - |
| 1777934633 | 23.89° C | 51% | 1011.5 hPa | 0 mm | - | 25 W/m² | - |
| 1777934329 | 23.89° C | 53% | 1011.7 hPa | 0 mm | - | 23 W/m² | - |
| 1777934025 | 23.89° C | 51% | 1011.8 hPa | 0 mm | - | 23 W/m² | - |
| 1777933722 | 23.89° C | 51% | 1011.6 hPa | 0 mm | - | 25 W/m² | - |
| 1777933418 | 23.89° C | 52% | 1011.6 hPa | 0 mm | - | 37 W/m² | - |
| 1777933117 | 23.89° C | 54% | 1011.7 hPa | 0 mm | - | 29 W/m² | - |
| 1777932813 | 23.89° C | 56% | 1011.6 hPa | 0 mm | - | 28 W/m² | - |
| 1777932511 | 23.89° C | 54% | 1011.5 hPa | 0 mm | - | 28 W/m² | - |
| 1777932207 | 24.44° C | 55% | 1012 hPa | 0 mm | - | 29 W/m² | - |
| 1777931905 | 25° C | 51% | 1011.8 hPa | 0 mm | - | 36 W/m² | - |
| 1777931601 | 25.56° C | 48% | 1011.7 hPa | 0 mm | - | 505 W/m² | - |
| 1777931297 | 25° C | 49% | 1011.8 hPa | 0 mm | - | 498 W/m² | - |
| 1777930994 | 25.56° C | 48% | 1012.1 hPa | 0 mm | - | 603 W/m² | - |
| 1777930690 | 23.89° C | 52% | 1011.9 hPa | 0 mm | - | 583 W/m² | - |
| 1777930387 | 24.44° C | 50% | 1011.7 hPa | 0 mm | - | 540 W/m² | - |
| 1777930084 | 24.44° C | 52% | 1011.9 hPa | 0 mm | - | 521 W/m² | - |
* Rain latest hour (hover to see other rain measurements)
** Current wind speed in m/s (hover to see current wind gust speed)